Regional Weather Roundup
Issued by NWS Kansas City/Pleasant Hill, MO

Home | Current Version | Previous Version | Graphics & Text | Print | Product List | Glossary Off
Versions: 1 2 3 4 5 6 7 8 9 10 11 12 13 14 15 16 17 18 19 20 21 22 23 24 25 26 27 28 29 30 31 32 33 34 35 36 37 38 39 40 41 42 43 44 45 46 47 48 49 50

141
ASUS43 KEAX 220010
RWREAX

WEATHER ROUNDUP FOR EASTERN KANSAS AND NORTHWEST MISSOURI
NATIONAL WEATHER SERVICE KANSAS CITY/PLEASANT HILL MO
600 PM CST TUE NOV 21 2017

KSZ040-057-103>105-MOZ028-029-037-043-220100-
...KANSAS CITY METROPOLITAN AREA...

CITY           SKY/WX    TMP DP  RH WIND       PRES   REMARKS
K.C. INTL      CLEAR     33  17  51 N14       30.30R WCI  23
6HR MIN TEMP:  33; 6HR MAX TEMP:  51;

K.C. DOWNTOWN  CLEAR     37  17  44 N14       30.30R WCI  28
6HR MIN TEMP:  37; 6HR MAX TEMP:  52;

LEES SUMMIT    CLEAR     37  18  46 N12G22    30.29R WCI  29
6HR MIN TEMP:  37; 6HR MAX TEMP:  51;

OLATHE - IXD   CLEAR     34  17  50 N18       30.30R WCI  23
6HR MIN TEMP:  34; 6HR MAX TEMP:  51;

OLATHE - OJC   CLEAR     36  17  46 N16G23    30.29R WCI  26
6HR MIN TEMP:  36; 6HR MAX TEMP:  50; 6HR PCP: TRACE;

LAWRENCE       CLEAR     35  17  47 NW15      30.33R WCI  25

$$

MOZ001>008-011>017-020>025-030>033-038>040-044>046-053-054-220100-
...NORTHERN AND CENTRAL MISSOURI...

CITY           SKY/WX    TMP DP  RH WIND       PRES   REMARKS
ST. JOSEPH     CLEAR     31  16  54 N15       30.34R WCI  20
6HR MIN TEMP:  31; 6HR MAX TEMP:  49;

MOSBY          CLEAR     34  18  51 NW12G17   30.31R WCI  25
WARRENSBURG    CLEAR     39  18  41 NW10G21   30.25R WCI  32
WHITEMAN AFB   CLEAR     39  17  41 N17       30.21R WCI  30
6HR MIN TEMP:  39; 6HR MAX TEMP:  52;

CLINTON        CLEAR     39  16  38 MISG      30.24R
SEDALIA        CLEAR     41  21  44 N16       30.24R WCI  33
6HR MIN TEMP:  41; 6HR MAX TEMP:  54;

WARSAW         NOT AVBL
CHILLICOTHE      N/A     34  18  52 NW5       30.29R WCI  30
6HR MIN TEMP:  34; 6HR MAX TEMP:  50;

KIRKSVILLE     CLEAR     32  19  58 NW7       30.25R WCI  26
6HR MIN TEMP:  32; 6HR MAX TEMP:  48;


$$

MOZ041-047>049-056>058-063>065-088>090-097-220100-
...EASTERN AND SOUTHERN MISSOURI...

CITY           SKY/WX    TMP DP  RH WIND       PRES   REMARKS
ST. LOUIS INTL CLOUDY    43  24  47 NW10      30.16R
6HR MIN TEMP:  43; 6HR MAX TEMP:  57;

SPIRIT OF STL  CLOUDY    44  23  43 NW6       30.16R
COLUMBIA       CLEAR     40  19  43 NW15      30.20R WCI  32
JEFFERSON CITY CLEAR     46  18  32 NW13      30.20R
ROLLA          CLEAR     42  23  46 N8        30.16R
OSAGE BEACH    CLEAR     43  22  43 NW5       30.20R
SPRINGFIELD    CLEAR     45  31  58 N9        30.16R
BRANSON        CLEAR     50  32  50 NW9       30.14R
JOPLIN         CLEAR     44  28  53 N10       30.21R
WEST PLAINS    CLEAR     51  32  48 N10       30.11R

$$

IAZ060-094-KSZ022-034>040-054-083-096-NEZ052-066-093-220100-
...KANSAS...SOUTHEAST NEBRASKA AND IOWA...

CITY           SKY/WX    TMP DP  RH WIND       PRES   REMARKS
TOPEKA         CLEAR     34  17  50 N8        30.34R WCI  27
6HR MIN TEMP:  33; 6HR MAX TEMP:  51;

MANHATTAN      CLEAR     35  14  42 N7        30.36R WCI  29
EMPORIA        CLEAR     37  13  37 N17G24    30.31R WCI  27
CHANUTE        CLEAR     43   9  24 N16G24    30.27R
WICHITA        CLEAR     43   9  24 N16G28    30.31R
OMAHA          CLEAR     28  11  48 N12G21    30.35R WCI  18
LINCOLN        CLEAR     28  12  51 N13       30.38R WCI  17
FALLS CITY     CLEAR     30  13  49 NW8       30.34R WCI  22
LAMONI         CLEAR     30  16  56 NW10      30.28R WCI  21
DES MOINES     CLEAR     31  12  45 NW15      30.29R WCI  20

$$





USA.gov is the U.S. government's official web portal to all federal, state and local government web resources and services.